Torna al catalogo

STARLINK-2578

AttivoComunicazioniVLEO
NORAD 48362·PAYLOAD·🇺🇸 United States

Lanciato May 4, 2021 da Cape Canaveral Space Force Station

Loading…

Prossimi Passaggi (prossime 24 ore)

TLE

AggiornatoSource: CelesTrak SupGP

Epoca: Sep 14, 2026, 20:25 UTC

1 48362C 21038K   26257.85118056  .00017108  00000+0  55012-3 0  2572
2 48362  53.1605 197.8181 0001554  96.9157 350.4050 15.31694871    15

Traccia STARLINK-2578 in tempo reale con AllMySat

Download on the App Store